Content
SEND FEEDBACK

Daily
Averages
Monthly
Summary
Canada

CALGARY, ALBERTA


Home > North America > Canada > Alberta
Elevation: 3556 feet     Latitude: 51 06N     Longitude: 114 01W

WEATHER
 
SELECT A DAY
Number of Records: 192,098;   Date Range: 1/1/95 - 7/27/14
 
SHARE

PRINT THIS DATA

[ ← Previous Day ]
WEATHER ALMANAC - MARCH 5, 2013
[ Next Day → ]
[ °C ]   °F
Weather ElementAverageHighLow
Temperature15 °F19.4 °F (11:00 am)10.4 °F (6:25 pm)
Dewpoint11.1 °F12.2 °F (1:00 am)8.6 °F (6:25 pm)
Humidity84.2 %93 % (1:00 am)62 % (11:00 am)
Barometer30.30 in30.40 in (1:00 am)30.18 in (11:40 pm)
Wind Speed9 mph12.7 mph (4:00 am)
Wind Gust18.4 mph (6:00 am)
Weather ElementAverage
Visibility7.9 mi
Wind DirectionSSE (151 °)

Weather ElementTotal
Precipitation---
Heating Degree Days50.1 (Base 65)
Averaged from 39 records on March 5, 2013
WEATHER CONDITIONS BREAKOUT
WIND DIRECTION BREAKOUT
WEATHER BY HOUR - MARCH 5, 2013
[ °C ]   °F
Local TimeTemperatureDewpointHumidityBarometerVisibilityWind DirectionWind SpeedGust SpeedPrecipitationEventsConditions
1:00 AM14.0 °F12.2 °F93 %30.40 in4.0 miSE (140°)8.1 mphSnowLight Snow
2:00 AM15.8 °F12.2 °F86 %30.40 in4.0 miSouth (170°)9.2 mphSnowLight Snow
3:00 AM14.0 °F12.2 °F93 %30.40 in2.5 miSouth (170°)9.2 mphSnowLight Snow
4:00 AM15.8 °F12.2 °F86 %30.39 in4.0 miSouth (180°)12.7 mphOvercast
5:00 AM17.0 °F11.0 °F69 %30.39 in5.0 miSSE (160°)11.5 mphMist
5:00 AM15.8 °F12.2 °F86 %30.38 in5.0 miSSE (160°)11.5 mphOvercast
5:47 AM17.6 °F12.2 °F79 %30.38 in5.0 miSSE (160°)9.2 mphSnowLight Snow
6:00 AM17.6 °F12.2 °F79 %30.37 in5.0 miSouth (170°)10.4 mph18.4 mphSnowLight Snow
7:00 AM17.6 °F12.2 °F79 %30.38 in7.0 miSouth (180°)8.1 mphSnowLight Snow
8:00 AM17.6 °F12.2 °F79 %30.38 in7.0 miSSE (160°)8.1 mphSnowLight Snow
9:00 AM17.6 °F12.2 °F79 %30.38 in7.0 miSSE (150°)5.8 mphSnowLight Snow
9:39 AM17.6 °F12.2 °F79 %30.37 in10.0 miSE (140°)5.8 mphMostly Cloudy
10:00 AM17.6 °F12.2 °F79 %30.36 in20.0 miSE (140°)5.8 mphMostly Cloudy
11:00 AM19.0 °F11.0 °F62 %30.34 in25.0 miSE (130°)6.9 mphPartly Cloudy
11:00 AM19.4 °F12.2 °F74 %30.34 in25.0 miSE (130°)5.8 mphClear
12:00 PM19.4 °F12.2 °F74 %30.33 in30.0 miEast (90°)8.1 mphPartly Cloudy
1:00 PM17.6 °F10.4 °F73 %30.33 in30.0 miESE (120°)9.2 mphClear
2:00 PM14.0 °F10.4 °F86 %30.31 in30.0 miESE (120°)8.1 mphPartly Cloudy
2:46 PM14.0 °F10.4 °F86 %30.30 in5.0 miSE (140°)10.4 mphMostly Cloudy
3:00 PM15.8 °F12.2 °F86 %30.30 in4.0 miSSE (160°)11.5 mphMostly Cloudy
3:12 PM14.0 °F12.2 °F93 %30.29 in5.0 miSE (140°)11.5 mphMostly Cloudy
3:49 PM14.0 °F10.4 °F86 %30.29 in5.0 miSSE (160°)12.7 mphMostly Cloudy
4:00 PM15.8 °F12.2 °F86 %30.28 in4.0 miSSE (160°)8.1 mphMostly Cloudy
4:25 PM14.0 °F12.2 °F93 %30.27 in4.0 miSSE (150°)11.5 mphMostly Cloudy
5:00 PM15.0 °F11.0 °F79 %30.26 in5.0 miSE (140°)6.9 mphPartly Cloudy
5:00 PM14.0 °F12.2 °F93 %30.26 in5.0 miSE (140°)8.1 mphMostly Cloudy
5:28 PM14.0 °F10.4 °F86 %30.25 in5.0 miSSE (160°)11.5 mphMostly Cloudy
6:00 PM12.2 °F10.4 °F92 %30.25 in5.0 miSSE (150°)11.5 mphMostly Cloudy
6:25 PM10.4 °F8.6 °F92 %30.25 in3.0 miSSE (150°)9.2 mphScattered Clouds
6:34 PM10.4 °F8.6 °F92 %30.25 in2.0 miSSE (160°)9.2 mphSnowLight Snow Grains
7:00 PM10.4 °F8.6 °F92 %30.24 in2.0 miSSE (150°)8.1 mphSnowLight Snow Grains
7:15 PM12.2 °F8.6 °F85 %30.24 in2.0 miSSE (150°)10.4 mphMostly Cloudy
8:00 PM12.2 °F8.6 °F85 %30.24 in1.5 miSouth (170°)10.4 mphSnowLight Snow
9:00 PM14.0 °F12.2 °F93 %30.22 in2.5 miSouth (180°)10.4 mphSnowLight Snow
9:54 PM12.2 °F8.6 °F85 %30.22 in4.0 miSSE (160°)6.9 mphMostly Cloudy
10:00 PM12.2 °F8.6 °F85 %30.22 in5.0 miSSE (150°)5.8 mphMostly Cloudy
11:00 PM14.0 °F11.0 °F81 %30.19 in5.0 miSSE (150°)8.1 mphMist
11:00 PM14.0 °F10.4 °F86 %30.19 in5.0 miSSE (150°)8.1 mphMostly Cloudy
11:40 PM14.0 °F12.2 °F93 %30.18 in5.0 miSSE (150°)6.9 mphOvercast
Hourly data recorded from CYYC, located miles away from Calgary, Alberta







STORIES FROM OUR PARTNERS